Wind_Speed
48 47 45 45 44 44 43 42 41 41 39 39 38 37 37 37 36 36 35 35 34 34 34 34 33 33 33 32 32 31 30 30 29 29 29 29 28 27 27 27 27 27 27
51 51 50 48 47 46 44 43 42 41 40 40 39 38 39 39 38 38 37 37 36 35 35 35 34 34 34 34 34 33 32 32 31 31 31 30 30 29 29 29 29 29 29
53 52 52 52 51 49 47 45 44 43 42 42 42 41 40 40 39 38 38 38 37 36 36 36 36 35 36 35 35 35 34 34 33 32 32 32 32 31 32 31 31 31 30
53 53 52 52 52 52 50 49 47 46 45 45 44 43 42 41 40 40 39 38 38 38 37 37 37 37 37 37 37 36 36 36 35 34 34 33 34 34 34 33 33 32 31
54 54 53 52 52 52 52 51 50 49 48 47 47 46 45 44 43 42 42 41 39 39 38 38 38 38 38 38 37 37 37 37 37 36 36 35 36 36 36 35 34 32 31
55 55 54 53 53 53 53 52 52 51 50 50 49 49 47 46 46 44 44 43 41 41 41 40 39 39 39 39 38 38 38 38 39 38 38 38 37 37 36 36 35 33 31
55 55 54 54 54 53 53 53 52 53 52 52 51 50 49 48 47 46 45 45 43 43 42 41 41 40 40 40 40 40 39 39 39 39 39 39 38 37 36 36 35 32 31
54 54 54 54 54 54 53 53 53 52 52 52 51 51 51 51 50 49 48 46 45 44 43 42 42 42 41 41 41 41 41 40 40 40 40 39 38 37 36 35 33 32 31
52 54 54 54 55 55 54 54 54 53 53 52 52 51 51 51 51 51 51 49 47 46 44 43 43 43 42 42 42 41 41 41 41 41 40 39 38 38 36 34 32 31 30
48 50 51 52 53 54 53 55 55 55 54 54 53 52 53 53 53 53 51 50 49 48 47 46 45 45 44 44 43 43 42 42 41 41 41 39 38 37 35 34 33 32 31
44 45 47 49 50 51 52 53 54 53 53 54 53 52 53 54 54 53 51 51 50 49 48 48 47 46 46 45 44 44 44 43 42 41 41 39 38 37 36 36 34 33 32
40 42 44 45 47 48 49 50 50 52 54 55 54 53 53 53 54 54 53 53 52 50 49 48 47 47 47 47 46 45 44 44 44 43 42 41 39 38 37 37 36 35 34
35 37 39 40 42 44 46 48 49 51 53 53 52 52 53 53 54 55 54 54 53 53 52 51 51 50 49 49 48 47 46 45 45 44 43 42 41 40 39 38 37 36 35
28 31 33 34 35 36 38 41 44 47 49 51 51 51 53 53 53 54 55 56 56 56 55 52 51 51 50 50 49 49 47 46 47 47 46 45 43 41 40 40 39 38 37
25 26 28 30 32 33 34 36 39 42 45 47 49 50 52 53 53 54 54 54 55 55 54 52 51 52 51 51 50 49 48 48 48 48 48 46 44 43 42 42 41 39 38
23 25 25 27 29 31 33 34 36 39 42 44 46 48 50 51 52 53 53 54 53 53 53 51 52 51 52 52 51 51 51 50 50 49 48 47 46 45 44 44 43 41 40
22 23 25 26 28 30 32 33 35 37 40 43 45 46 47 48 51 52 52 53 54 54 55 54 54 53 52 52 52 53 53 51 50 50 50 49 50 49 47 46 45 44 43
22 23 25 27 29 30 32 33 35 36 38 40 42 44 44 45 48 49 51 52 54 55 56 54 54 54 54 53 54 55 55 54 54 53 53 53 52 51 50 49 48 47 46
23 25 26 28 29 31 33 34 35 36 38 39 40 42 45 46 47 49 51 52 53 55 56 57 56 56 57 57 57 56 57 57 57 57 57 55 54 54 52 51 50 49 48
24 26 28 29 31 32 33 34 35 36 38 40 42 44 45 47 49 50 51 53 54 56 57 59 59 59 59 60 60 60 60 61 60 60 58 57 56 55 54 53 53 52 50
25 26 28 30 31 33 35 36 38 39 41 42 43 45 47 49 51 53 54 54 56 57 58 58 60 60 60 61 62 62 63 63 63 63 61 60 59 57 56 55 54 53 52
27 29 31 32 33 35 36 38 40 41 43 44 46 47 49 51 53 55 57 58 58 59 59 60 60 61 62 63 63 63 63 64 65 64 63 62 62 60 57 56 55 54 53
31 33 35 36 37 38 40 42 43 44 46 48 49 51 52 54 55 57 58 60 61 62 63 63 64 64 65 66 67 67 67 66 66 66 66 64 63 61 60 58 57 55 54
36 38 39 40 41 42 43 45 47 48 50 51 53 55 56 57 59 60 61 62 63 64 65 66 66 66 67 68 70 70 70 70 69 69 69 69 67 66 64 63 61 59 57
39 40 41 42 43 45 46 48 50 51 52 54 56 58 59 60 60 62 63 63 64 65 66 67 67 67 68 69 70 71 72 72 72 72 72 71 70 69 67 65 64 61 59
41 42 43 44 45 47 49 51 52 54 56 57 59 60 62 63 63 63 65 65 66 66 67 68 69 69 68 69 70 71 72 72 72 72 71 71 70 70 69 67 65 63 61
Wind_Direction
261 260 261 261 261 262 263 262 262 263 265 265 265 265 266 266 266 265 265 266 266 266 266 266 267 267 268 269 269 270 272 274 276 278 281 284 286 289 294 298 301 300 300
260 260 259 259 259 260 261 261 261 262 264 263 264 265 265 264 265 265 264 264 265 265 266 266 267 267 268 269 269 270 271 273 274 277 280 282 285 288 291 295 299 298 298
259 259 259 258 258 259 260 259 259 260 262 262 263 263 263 263 265 265 265 264 263 264 266 265 266 267 267 268 269 270 270 271 273 276 278 281 283 286 289 293 296 296 295
259 258 258 258 257 257 257 257 258 259 260 260 261 261 261 262 263 263 264 264 264 265 265 265 265 266 267 268 269 269 269 270 272 274 277 279 282 285 287 290 294 293 293
258 258 257 256 256 256 256 256 257 258 258 258 259 259 259 261 261 262 263 264 264 265 265 265 266 265 265 267 268 269 269 270 272 274 276 279 282 284 286 288 292 292 291
256 256 256 255 255 255 255 255 255 256 256 257 257 257 258 258 259 261 263 264 265 266 265 266 266 266 265 265 267 268 268 270 271 273 274 276 279 282 284 286 289 289 289
255 254 255 255 254 253 254 253 253 254 254 253 255 256 256 257 259 260 263 264 265 266 265 265 265 265 264 265 266 266 267 268 270 272 273 274 277 280 283 285 287 286 286
255 255 254 253 253 253 253 252 252 252 252 253 255 256 256 256 257 259 260 262 264 265 265 265 265 264 263 264 265 266 266 267 268 270 271 273 275 277 279 283 283 283 284
254 254 254 254 253 253 253 252 252 252 252 253 255 256 256 256 258 259 260 261 263 264 264 263 263 263 262 263 264 265 267 267 268 269 270 272 275 276 277 279 279 280 282
254 254 254 253 253 252 252 251 251 253 253 254 255 256 257 258 259 258 258 260 261 262 262 262 262 261 262 264 264 264 265 266 267 268 269 270 272 274 275 275 276 279 280
254 254 254 253 254 253 252 251 251 252 253 255 256 257 258 259 259 259 259 259 260 261 262 261 262 262 263 263 263 263 263 264 265 267 268 268 268 270 272 273 274 276 278
255 255 255 254 255 254 254 254 254 254 254 255 256 257 258 259 260 260 260 260 259 260 261 261 262 261 262 262 262 263 263 262 263 264 265 265 266 268 270 271 272 274 275
257 256 256 257 257 258 257 257 256 256 256 256 257 257 258 258 260 261 261 261 261 261 261 263 263 262 262 262 262 262 262 263 263 262 262 263 265 266 267 268 269 271 271
260 259 258 259 262 263 262 260 258 257 257 257 258 258 258 259 261 262 263 262 262 262 262 263 263 263 262 262 261 261 261 261 261 261 261 261 262 263 264 265 266 268 268
266 266 263 262 264 264 263 261 259 259 260 259 259 259 260 260 261 261 262 262 262 263 262 262 263 262 262 261 260 260 259 260 260 261 260 260 261 261 262 263 265 266 266
272 271 270 268 268 268 265 266 265 261 261 261 260 261 261 261 260 261 261 262 262 263 263 262 262 262 261 260 259 259 260 259 259 259 259 260 260 260 261 262 263 264 265
276 276 274 273 274 273 271 272 271 270 268 266 264 262 262 263 262 261 262 263 262 263 262 262 262 262 262 261 260 260 259 259 259 258 259 260 260 260 261 262 262 263 264
279 279 278 278 278 277 277 278 277 275 273 270 268 266 266 265 264 263 263 264 264 263 263 263 262 262 262 261 260 260 259 259 259 260 261 261 260 260 261 261 260 262 263
285 285 283 283 283 282 280 279 280 278 276 274 272 270 269 268 266 265 265 265 265 264 263 263 263 262 262 261 260 259 258 258 259 259 260 260 260 260 260 260 261 261 262
291 289 288 287 286 286 285 283 283 281 280 279 277 275 272 270 269 268 268 267 266 265 264 263 263 263 262 262 261 260 260 259 259 259 259 259 259 259 259 259 260 259 260
298 296 294 292 291 289 286 284 284 283 282 281 280 279 276 273 271 270 269 268 266 266 265 264 263 262 262 261 261 261 260 260 259 259 259 259 258 258 258 258 258 258 259
302 300 299 297 294 292 290 287 286 285 284 283 282 281 279 276 274 272 271 270 268 268 266 266 266 265 264 263 262 262 261 260 259 259 259 259 259 258 257 257 256 256 257
303 301 300 299 296 295 292 290 289 288 287 286 285 284 283 280 278 275 273 272 270 269 268 267 266 266 265 264 263 261 261 261 260 259 259 258 258 257 257 256 255 255 255
305 303 301 300 297 296 294 292 290 289 289 288 287 286 285 283 280 277 275 273 272 270 268 267 267 267 266 265 264 262 261 260 259 258 258 257 257 256 255 256 255 254 254
305 304 303 301 300 298 297 295 294 293 292 290 289 287 285 284 282 279 277 275 273 271 269 268 267 267 266 265 264 262 260 260 259 257 257 257 256 255 254 254 254 252 252
306 305 304 303 301 300 299 298 297 296 294 292 291 289 287 285 283 280 278 276 274 272 271 270 269 268 267 266 264 263 261 260 259 258 256 256 255 254 253 252 252 250 250
Height
5799 5801 5803 5804 5806 5807 5808 5810 5812 5813 5814 5815 5816 5817 5818 5819 5821 5822 5823 5824 5825 5826 5826 5827 5827 5828 5828 5828 5828 5828 5828 5828 5828 5827 5827 5826 5825 5824 5823 5822 5821 5819 5818
5788 5790 5793 5795 5797 5798 5800 5801 5803 5804 5805 5806 5808 5809 5810 5811 5813 5814 5815 5816 5817 5818 5819 5820 5820 5821 5821 5822 5822 5822 5822 5822 5822 5821 5821 5820 5819 5819 5818 5817 5815 5814 5813
5777 5779 5782 5784 5787 5789 5790 5792 5794 5795 5797 5798 5799 5800 5802 5803 5804 5806 5807 5809 5809 5810 5811 5812 5813 5813 5814 5814 5815 5815 5815 5815 5815 5815 5814 5814 5813 5812 5812 5810 5809 5808 5807
5764 5767 5770 5773 5776 5778 5780 5782 5784 5786 5788 5789 5790 5792 5793 5794 5795 5797 5799 5800 5801 5802 5803 5804 5805 5805 5806 5807 5807 5807 5808 5808 5808 5808 5807 5807 5807 5806 5805 5804 5803 5801 5800
5752 5754 5757 5761 5764 5766 5769 5772 5774 5776 5778 5779 5780 5782 5783 5785 5786 5788 5789 5791 5793 5794 5794 5795 5796 5797 5798 5799 5799 5799 5800 5800 5800 5800 5800 5800 5799 5799 5798 5797 5796 5795 5794
5739 5742 5745 5749 5752 5755 5758 5760 5763 5765 5767 5769 5770 5771 5773 5775 5777 5778 5780 5781 5783 5784 5786 5786 5787 5788 5789 5790 5791 5791 5792 5792 5792 5792 5792 5792 5792 5791 5790 5790 5789 5788 5787
5726 5729 5733 5736 5739 5743 5746 5749 5751 5753 5756 5757 5759 5761 5763 5765 5766 5768 5770 5771 5773 5774 5776 5777 5778 5779 5780 5781 5781 5782 5783 5783 5783 5784 5784 5784 5783 5783 5783 5782 5781 5781 5780
5713 5716 5720 5723 5727 5730 5733 5736 5739 5741 5743 5745 5747 5748 5751 5754 5756 5758 5759 5761 5762 5764 5766 5767 5768 5769 5770 5771 5772 5773 5773 5774 5774 5774 5775 5775 5775 5774 5774 5774 5774 5773 5773
5701 5704 5708 5711 5714 5718 5721 5724 5727 5729 5732 5733 5735 5737 5738 5742 5744 5746 5748 5750 5751 5753 5755 5756 5757 5758 5759 5761 5762 5763 5764 5765 5765 5765 5766 5766 5766 5766 5766 5766 5766 5766 5766
5689 5692 5696 5699 5702 5705 5709 5712 5715 5717 5719 5721 5723 5725 5727 5730 5731 5734 5736 5738 5740 5742 5743 5745 5746 5747 5749 5750 5752 5752 5753 5754 5755 5756 5756 5757 5757 5757 5757 5758 5758 5758 5758
5679 5682 5685 5688 5691 5694 5697 5700 5703 5705 5707 5709 5711 5713 5715 5717 5719 5721 5724 5726 5728 5730 5731 5733 5735 5736 5738 5739 5740 5741 5742 5743 5744 5746 5747 5747 5747 5748 5748 5749 5749 5750 5750
5671 5673 5675 5678 5680 5683 5685 5688 5691 5693 5695 5697 5699 5701 5703 5705 5707 5708 5710 5713 5715 5718 5719 5720 5722 5724 5726 5727 5729 5730 5731 5732 5733 5735 5736 5737 5738 5738 5739 5740 5740 5741 5741
5662 5664 5666 5669 5671 5673 5675 5678 5680 5681 5683 5684 5686 5688 5690 5692 5694 5695 5697 5699 5701 5704 5706 5708 5710 5712 5713 5715 5716 5718 5719 5720 5722 5723 5724 5726 5727 5728 5729 5730 5731 5732 5732
5656 5657 5659 5661 5662 5664 5665 5666 5668 5670 5671 5672 5674 5675 5677 5679 5681 5682 5684 5686 5687 5690 5693 5696 5697 5698 5700 5701 5703 5704 5706 5707 5709 5710 5712 5714 5716 5717 5718 5719 5720 5722 5722
5650 5651 5652 5653 5654 5655 5656 5657 5658 5658 5659 5660 5661 5663 5664 5666 5668 5669 5671 5672 5673 5675 5679 5682 5683 5685 5686 5687 5689 5691 5692 5694 5696 5698 5700 5702 5704 5705 5707 5708 5709 5711 5712
5644 5645 5646 5647 5647 5648 5648 5648 5648 5648 5648 5649 5649 5650 5652 5653 5654 5656 5657 5658 5659 5661 5664 5667 5668 5670 5671 5672 5674 5676 5679 5680 5682 5684 5687 5689 5691 5693 5695 5696 5698 5700 5701
5639 5639 5640 5640 5640 5640 5640 5639 5639 5638 5638 5638 5638 5638 5639 5640 5641 5642 5643 5644 5645 5646 5648 5651 5653 5654 5656 5658 5660 5662 5664 5666 5668 5670 5673 5675 5677 5680 5682 5684 5685 5688 5689
5633 5633 5633 5633 5632 5631 5631 5630 5629 5628 5627 5627 5626 5626 5626 5626 5627 5628 5629 5629 5630 5631 5632 5634 5637 5638 5640 5643 5644 5646 5649 5651 5653 5655 5658 5660 5663 5665 5668 5670 5672 5674 5676
5628 5627 5626 5625 5624 5623 5622 5621 5620 5618 5617 5615 5614 5614 5613 5613 5614 5614 5614 5614 5615 5615 5615 5617 5620 5621 5623 5625 5627 5629 5632 5634 5637 5639 5642 5644 5647 5650 5653 5655 5658 5660 5662
5621 5620 5619 5617 5616 5614 5612 5611 5609 5607 5605 5604 5602 5601 5599 5599 5599 5598 5598 5598 5598 5598 5598 5599 5601 5603 5605 5607 5609 5611 5614 5616 5619 5622 5625 5628 5631 5634 5637 5640 5643 5645 5648
5615 5613 5610 5608 5606 5604 5602 5600 5598 5596 5593 5591 5589 5587 5585 5584 5582 5582 5581 5581 5581 5580 5580 5581 5582 5583 5585 5587 5589 5592 5594 5598 5601 5604 5607 5611 5614 5617 5620 5623 5626 5629 5632
5607 5604 5602 5599 5596 5593 5591 5588 5586 5583 5581 5578 5575 5572 5569 5567 5565 5564 5563 5562 5562 5561 5561 5561 5562 5563 5565 5567 5569 5570 5573 5577 5582 5586 5587 5592 5594 5598 5602 5606 5609 5612 5615
5599 5595 5592 5589 5585 5582 5579 5576 5573 5570 5566 5563 5560 5556 5553 5549 5546 5545 5543 5542 5542 5541 5540 5541 5542 5543 5544 5545 5547 5549 5551 5555 5560 5564 5565 5571 5574 5579 5583 5587 5590 5594 5598
5589 5585 5581 5577 5573 5569 5566 5562 5558 5555 5551 5546 5542 5538 5534 5531 5527 5524 5522 5521 5520 5519 5518 5518 5520 5521 5521 5521 5522 5525 5527 5531 5536 5539 5542 5548 5553 5557 5562 5566 5571 5575 5579
5578 5574 5569 5565 5561 5556 5552 5547 5543 5539 5534 5529 5524 5519 5514 5510 5506 5502 5500 5499 5498 5496 5494 5494 5495 5496 5496 5497 5497 5498 5501 5504 5510 5515 5517 5522 5529 5534 5539 5545 5549 5554 5558
5567 5562 5557 5552 5548 5543 5537 5532 5527 5522 5517 5511 5505 5499 5493 5488 5483 5479 5476 5475 5473 5472 5470 5470 5470 5471 5471 5471 5471 5472 5475 5478 5482 5489 5494 5496 5503 5508 5516 5523 5527 5532 5537